Orbital Elements
Epoch 2010 Nov. 20.0 TT = JDT 2455520.5
T 2010 Nov. 9.30694 TT MPC
q 2.5527544 (2000.0) P Q
n 0.11149974 Peri. 44.24027 +0.74873422 -0.66271341
a 4.2751708 Node 357.14981 +0.49864672 +0.57744044
e 0.4028883 Incl. 16.86087 +0.43674767 +0.47683696
P 8.84
From 250 observations 2010 Oct. 1-2011 Mar. 7, mean residual 0".5.
|